Location: Central Falls
(41.8900°N, 71.3929°W)
Time: 13:42:01
(UTC+00:00)

Vanguard 3 - All Passes

Search period start: 03 December 2023 00:00
Search period end: 13 December 2023 00:00
Orbit: 507 x 3241 km, 33.3° (Epoch: 03 December)

Date Brightness Start Highest point End Pass type
(mag) Time Alt. Az. Time Alt. Az. Time Alt. Az.
03 Dec - 00:50:47 10° S 00:58:51 18° SSE 01:04:54 10° ESE visible
03 Dec - 03:01:58 10° SW 03:11:28 33° SSE 03:17:22 10° ESE visible
03 Dec - 05:15:58 10° WSW 05:23:04 37° S 05:27:33 10° ESE night (unlit)
03 Dec - 07:30:01 10° WSW 07:33:35 19° SSW 07:36:28 10° SSE night (unlit)
03 Dec - 23:36:05 10° SSE 23:40:56 12° SSE 23:45:09 10° SE visible
04 Dec - 01:43:30 10° SSW 01:54:05 28° SSE 02:00:58 10° ESE visible
04 Dec - 03:57:07 10° WSW 04:06:19 40° S 04:11:50 10° ESE night (unlit)
04 Dec - 06:11:35 10° WSW 06:17:28 31° SSW 06:21:26 10° SE night (unlit)
05 Dec - 00:25:47 10° SSW 00:36:16 22° SSE 00:43:47 10° ESE visible
05 Dec - 02:38:03 10° SW 02:49:10 38° S 02:55:52 10° ESE visible
05 Dec - 04:52:45 10° WSW 05:01:00 41° S 05:05:59 10° ESE night (unlit)
05 Dec - 07:07:29 10° WSW 07:11:34 20° SSW 07:14:43 10° SSE night (unlit)
05 Dec - 23:09:46 10° S 23:18:10 16° SSE 23:25:00 10° ESE visible
06 Dec - 01:19:08 10° SW 01:31:33 33° SSE 01:39:27 10° ESE visible
06 Dec - 03:33:30 10° WSW 03:44:06 45° S 03:50:16 10° ESE visible
06 Dec - 05:48:37 10° W 05:55:25 33° SSW 05:59:49 10° SE night (unlit)
07 Dec - 00:00:59 10° SSW 00:13:32 27° SSE 00:22:20 10° ESE visible
07 Dec - 02:14:01 10° SW 02:26:44 43° S 02:34:15 10° E visible
07 Dec - 04:29:23 10° WSW 04:38:50 44° S 04:44:23 10° ESE night (unlit)
07 Dec - 06:44:46 10° WSW 06:49:29 20° SSW 06:52:57 10° SSE night (unlit)
07 Dec - 22:44:18 10° S 22:55:14 20° SSE 23:03:53 10° ESE visible
08 Dec - 00:54:48 10° SW 01:08:53 38° SSE 01:17:47 10° E visible
08 Dec - 03:09:45 10° WSW 03:21:46 49° S 03:28:38 10° ESE visible
08 Dec - 05:25:28 10° W 05:33:16 35° SSW 05:38:09 10° SE night (unlit)
08 Dec - 21:31:20 10° SSE 21:36:49 12° SE 21:41:52 10° ESE visible
08 Dec - 23:36:19 10° SSW 23:50:37 31° SSE 00:00:39 10° E visible
09 Dec - 01:49:57 10° WSW 02:04:10 48° S 02:12:32 10° E visible
09 Dec - 04:05:52 10° WSW 04:16:35 47° S 04:22:44 10° ESE visible
09 Dec - 06:21:51 10° W 06:27:18 21° SSW 06:31:12 10° SSE night (unlit)
09 Dec - 22:19:15 10° S 22:32:07 23° SSE 22:42:19 10° ESE visible
10 Dec - 00:30:27 10° SW 00:46:03 43° SSE 00:55:58 10° E visible
10 Dec - 02:45:53 10° WSW 02:59:18 53° S 03:06:55 10° ESE visible
10 Dec - 05:02:08 10° W 05:11:03 37° SSW 05:16:28 10° SE night (unlit)
10 Dec - 21:04:54 10° SSE 21:13:37 15° SE 21:21:26 10° ESE daylight
10 Dec - 23:11:47 10° SSW 23:27:32 35° SSE 23:38:44 10° E visible
11 Dec - 01:25:50 10° WSW 01:41:25 52° S 01:50:43 10° E visible
11 Dec - 03:42:11 10° W 03:54:11 49° SSW 04:01:02 10° ESE visible
11 Dec - 05:58:45 10° W 06:05:02 22° SW 06:09:25 10° SSE night (unlit)
11 Dec - 21:54:29 10° SSW 22:08:50 27° SSE 22:20:26 10° E visible
12 Dec - 00:06:11 10° SW 00:23:02 47° SSE 00:34:02 10° E visible
12 Dec - 02:21:56 10° WSW 02:36:40 56° S 02:45:08 10° ESE visible
12 Dec - 04:38:38 10° W 04:48:41 38° SSW 04:54:43 10° SE visible
12 Dec - 20:39:30 10° S 20:50:14 18° SE 20:59:58 10° ESE daylight
12 Dec - 22:47:25 10° SW 23:04:15 39° SSE 23:16:40 10° E visible
